Ellensburg, WA

4:16 PM PST on December 10, 2016 (GMT -0800)
Bowers

Weather History for KELN - May, 2012

Change the Weather History Date:

Saturday, May 26, 2012

  Actual Average (KYKM) Record (KYKM)
Temperature  
Mean Temperature 62 °F -  
Max Temperature 77 °F 74 °F 98 °F (1958)
Min Temperature 48 °F 45 °F 31 °F (1973)
Degree Days  
Heating Degree Days 4    
Growing Degree Days 12 (Base 50)    
Moisture  
Dew Point 34 °F    
Average Humidity 36    
Maximum Humidity 59    
Minimum Humidity 17    
Precipitation  
Precipitation 0.00 in - - ()
Sea Level Pressure  
Sea Level Pressure 29.84 in    
Wind  
Wind Speed 7 mph (North)    
Max Wind Speed 16 mph    
Max Gust Speed 21 mph    
Visibility 10 miles    
Events Rain    
Averages and records for this station are not official NWS values.
T = Trace of Precipitation, MM = Missing Value Source: NWS Daily Summary

Daily Weather History Graph

Daily Weather History Graph

Search for Another Location

Airport or City:

Trip Planner

Search our weather history database for the weather conditions in past years. The results will help you decide how hot, cold, wet, or windy it might be!

Date:

Astronomy

May. 26, 2012 Rise Set
Actual Time 5:14 AM PDT 8:44 PM PDT
Civil Twilight 4:36 AM PDT 9:22 PM PDT
Nautical Twilight 3:46 AM PDT 10:12 PM PDT
Astronomical Twilight 2:40 AM PDT 11:19 PM PDT
Moon 10:31 AM PDT (5/26) 12:13 AM PDT (5/26)
Length of Visible Light 16h 45m
Length of Day
15h 29m
Waxing Crescent, 29% of the Moon is Illuminated
May 26
Waxing Crescent
May 28
First Quarter
Jun 4
Full
Jun 11
Last Quarter
Jun 19
New

Hourly Weather History & Observations

Time (PDT) Temp. Dew Point Humidity Pressure Visibility Wind Dir Wind Speed Gust Speed Precip Events Conditions
12:53 AM 57.0 °F 34.0 °F 42% 29.86 in 10.0 mi NNE 4.6 mph - N/A   Mostly Cloudy
1:53 AM 55.0 °F 37.0 °F 51% 29.87 in 10.0 mi WNW 5.8 mph - N/A   Overcast
2:53 AM 54.0 °F 37.0 °F 53% 29.86 in 10.0 mi NNW 8.1 mph - N/A   Overcast
3:53 AM 50.0 °F 35.1 °F 57% 29.86 in 10.0 mi NW 5.8 mph - N/A   Scattered Clouds
4:53 AM 50.0 °F 34.0 °F 54% 29.86 in 10.0 mi NNE 8.1 mph - N/A   Mostly Cloudy
5:53 AM 48.9 °F 35.1 °F 59% 29.87 in 10.0 mi Calm Calm - N/A   Overcast
6:53 AM 57.0 °F 37.9 °F 49% 29.87 in 10.0 mi Calm Calm - N/A   Mostly Cloudy
7:53 AM 64.0 °F 30.9 °F 29% 29.86 in 10.0 mi NNE 13.8 mph 17.3 mph N/A   Clear
8:53 AM 66.9 °F 30.0 °F 25% 29.86 in 10.0 mi NE 8.1 mph - N/A   Partly Cloudy
9:53 AM 64.9 °F 30.0 °F 27% 29.86 in 10.0 mi North 8.1 mph - N/A   Overcast
10:53 AM 68.0 °F 30.9 °F 25% 29.84 in 10.0 mi NNE 9.2 mph 18.4 mph N/A   Scattered Clouds
11:53 AM 68.0 °F 28.9 °F 23% 29.83 in 10.0 mi NNE 10.4 mph - N/A   Mostly Cloudy
12:53 PM 72.0 °F 28.9 °F 20% 29.81 in 10.0 mi NE 9.2 mph 18.4 mph N/A   Partly Cloudy
1:53 PM 75.9 °F 28.0 °F 17% 29.81 in 10.0 mi NE 11.5 mph 20.7 mph N/A   Scattered Clouds
2:53 PM 73.0 °F 28.0 °F 19% 29.80 in 10.0 mi ENE 11.5 mph 16.1 mph N/A   Overcast
3:53 PM 71.1 °F 28.9 °F 21% 29.81 in 10.0 mi NE 5.8 mph - N/A   Overcast
4:53 PM 72.0 °F 30.9 °F 22% 29.81 in 10.0 mi WSW 8.1 mph - N/A   Mostly Cloudy
5:53 PM 70.0 °F 30.0 °F 23% 29.81 in 10.0 mi Calm Calm - 0.00 in Rain Light Rain
6:53 PM 68.0 °F 33.1 °F 27% 29.81 in 10.0 mi NW 3.5 mph - 0.00 in   Overcast
7:53 PM 64.9 °F 37.0 °F 36% 29.82 in 10.0 mi NNW 9.2 mph - 0.00 in   Partly Cloudy
8:53 PM 60.1 °F 39.9 °F 47% 29.83 in 10.0 mi NW 9.2 mph - N/A   Scattered Clouds
9:53 PM 61.0 °F 39.0 °F 44% 29.84 in 10.0 mi NNW 10.4 mph - N/A   Scattered Clouds
10:53 PM 59.0 °F 39.9 °F 49% 29.84 in 10.0 mi NNW 11.5 mph - N/A   Partly Cloudy
11:53 PM 57.0 °F 39.9 °F 53% 29.84 in 10.0 mi NNW 16.1 mph - N/A   Clear